Regional Weather Roundup
Issued by NWS

Home | Current Version | Previous Version | Graphics & Text | Print | Product List | Glossary On
Versions: 1 2 3 4 5 6 7 8 9 10 11 12 13 14 15 16 17 18 19 20 21 22 23 24 25 26 27 28 29 30 31 32 33 34 35 36 37 38 39 40 41 42 43 44 45 46 47 48 49 50
000
ASUS43 KIND 271800
RWRIN

WEATHER ROUNDUP FOR INDIANA
NATIONAL WEATHER SERVICE INDIANAPOLIS IN
200 PM EDT THU JUL 27 2017

NOTE: "FAIR" INDICATES FEW OR NO CLOUDS BELOW 12,000 FEET WITH NO
SIGNIFICANT WEATHER AND/OR OBSTRUCTIONS TO VISIBILITY.

* - STATION DOES NOT REPORT WEATHER SUCH AS PRECIPITATION OR FOG.

+ - STATION NOT QUALITY CONTROLLED BY THE NATIONAL WEATHER SERVICE.
    USE DATA WITH CAUTION...ESPECIALLY DEWPOINT AND RELATIVE
    HUMIDITY OBSERVATIONS.

INZ001>003-010>013-019-020-271900-
NORTHWEST INDIANA

CITY           SKY/WX    TMP DP  RH WIND       PRES   REMARKS
GARY /AIRPORT/ CLOUDY    75  72  88 N12       29.95S
MICHIGAN CITY+ PTSUNNY   79  72  78 NW9       29.93F
MONTICELLO +   PTSUNNY   81  72  74 NW8       29.91F
6HR MIN TEMP:  72; 6HR MAX TEMP:  81;

RENSSELAER +   CLOUDY    77  70  78 N6        29.92F

$$

LMZ046-743>745-271900-
SOUTHERN LAKE MICHIGAN

STATION/POSITION TIME  TEMP    WIND        PRES    WAVE
                       AIR SEA DIR/SP/G            HT
                 (UTC) (F)     (DEG/KT/KT) (MB)    (FT)
BURNS HARBOR     1740   74     360/ 10/ 13 1014.2S
MICHIGAN CITY    1730   76     340/  9/ 10   N/A
5NW MICH CITY    1750   74 75  360/ 12/ 14   N/A     1

$$

INZ004-005-014>016-021>024-271900-
NORTH CENTRAL INDIANA

CITY           SKY/WX    TMP DP  RH WIND       PRES   REMARKS
ELKHART        MOSUNNY   79  72  78 CALM      29.92F
GOSHEN         LGT RAIN  76  71  85 W3        29.92F
6HR MIN TEMP:  72; 6HR MAX TEMP:  76; 6HR PCP:  0.01;

SOUTH BEND     CLOUDY    80  71  74 VRB3      29.92F
6HR MIN TEMP:  72; 6HR MAX TEMP:  81; 6HR PCP: TRACE;

WARSAW +       CLOUDY    77  72  83 W6        29.92F

$$

INZ006>009-017-018-025>027-271900-
NORTHEAST INDIANA

CITY           SKY/WX    TMP DP  RH WIND       PRES   REMARKS
AUBURN +       LGT RAIN  73  72  94 CALM      29.92F
FORT WAYNE     CLOUDY    77  72  84 W9        29.92F
6HR MIN TEMP:  71; 6HR MAX TEMP:  77; 6HR PCP:  0.01;

KENDALLVILLE + CLOUDY    77  74  89 W3        29.93S

$$

INZ028-029-035-036-043>045-051>053-271900-
WEST CENTRAL INDIANA

CITY           SKY/WX    TMP DP  RH WIND       PRES   REMARKS
GREENCASTLE +  CLOUDY    73  70  88 W5        29.95R
LAFAYETTE      LGT RAIN  77  74  90 NW6       29.91F
6HR MIN TEMP:  72; 6HR MAX TEMP:  81; 6HR PCP: TRACE;

TERRE HAUTE    CLOUDY    79  72  79 W7        29.94F
6HR MIN TEMP:  73; 6HR MAX TEMP:  79; 6HR PCP:  0.21;


$$

INZ030>032-037>040-046>048-054>057-064-065-271900-
CENTRAL INDIANA

CITY           SKY/WX    TMP DP  RH WIND       PRES   REMARKS
COLUMBUS       CLOUDY    81  70  69 W13       29.95F
FRANKFORT +    CLOUDY    80  74  84 N3        29.94F
6HR MIN TEMP:  74; 6HR MAX TEMP:  80;

GREENWOOD *+   PTSUNNY   76  68  76 W8G16     29.95F
INDIANAPOLIS   PTSUNNY   77  73  87 W9        29.92F
6HR MIN TEMP:  74; 6HR MAX TEMP:  79; 6HR PCP:  0.13;

-EAGLE CREEK   CLOUDY    79  72  79 VRB3      29.92F
6HR MIN TEMP:  74; 6HR MAX TEMP:  79; 6HR PCP:  0.03;

KOKOMO +       CLOUDY    80  73  79 NW5       29.93F
6HR MIN TEMP:  71; 6HR MAX TEMP:  80; 6HR PCP:  0.10;

MT COMFORT *+  CLOUDY    75  72  88 NW7       29.94F
SHELBYVILLE    CLOUDY    77  71  82 W8        29.93F
6HR MIN TEMP:  75; 6HR MAX TEMP:  81; 6HR PCP:  0.21;


$$

INZ033-034-041-042-049-050-058-059-271900-
EAST CENTRAL INDIANA

CITY           SKY/WX    TMP DP  RH WIND       PRES   REMARKS
MUNCIE         PTSUNNY   81  71  71 NW6       29.93F
6HR MIN TEMP:  74; 6HR MAX TEMP:  81; 6HR PCP:  0.03;

RICHMOND +     LGT RAIN  72  72 100 W7        29.96S

$$

INZ060-061-067>069-081>083-085>088-271900-
SOUTHWEST INDIANA

CITY           SKY/WX    TMP DP  RH WIND       PRES   REMARKS
EVANSVILLE     CLOUDY    81  75  82 N3        29.96F
6HR MIN TEMP:  75; 6HR MAX TEMP:  81; 6HR PCP:  0.02;

HUNTINGBURG *+ CLOUDY    80  75  84 CALM      29.97F
6HR MIN TEMP:  74; 6HR MAX TEMP:  81; 6HR PCP: TRACE;


$$

INZ062-063-066-070>080-084-089>092-271900-
SOUTH CENTRAL AND SOUTHEAST INDIANA

CITY           SKY/WX    TMP DP  RH WIND       PRES   REMARKS
BLOOMINGTON    PTSUNNY   80  71  74 W9        29.96F
6HR MIN TEMP:  73; 6HR MAX TEMP:  80; 6HR PCP:  0.08;

MADISON *+     MOSUNNY   82  70  65 W7        29.98F
SEYMOUR +      CLOUDY    84  72  65 W12       29.95F

$$





USA.gov is the U.S. government's official web portal to all federal, state and local government web resources and services.